Date,TemperatureHighF,TemperatureAvgF,TemperatureLowF,DewpointHighF,DewpointAvgF,DewpointLowF,HumidityHigh,HumidityAvg,HumidityLow,PressureMaxIn,PressureMinIn,WindSpeedMaxMPH,WindSpeedAvgMPH,GustSpeedMaxMPH,PrecipitationSumIn
2013-1-1,56.8,46.5,39.5,41.9,37.4,29.3,91,72,48,30.28,30.21,7,1,7,0.00
2013-1-2,57.1,46.0,39.0,42.4,36.9,32.9,89,71,51,30.25,30.14,3,0,4,0.00
2013-1-3,54.8,44.8,39.6,44.4,39.1,35.6,89,81,64,30.28,30.17,5,0,7,0.00
2013-1-4,58.7,47.2,40.0,44.5,39.8,36.7,89,76,55,30.30,30.18,4,0,5,0.00
2013-1-5,50.1,46.6,43.4,46.3,43.2,39.3,93,88,81,30.26,30.07,10,0,10,0.39
2013-1-6,54.9,46.7,43.5,47.9,43.7,41.5,93,89,75,30.20,30.06,6,0,7,0.08
2013-1-7,61.7,49.1,42.7,53.1,45.2,40.2,92,87,69,30.27,30.17,6,0,6,0.01
2013-1-8,56.0,48.4,43.4,49.2,44.5,41.2,92,87,73,30.25,30.13,5,0,5,0.00
2013-1-9,52.7,47.2,42.8,49.3,43.0,37.1,92,86,74,30.16,30.00,16,2,18,0.00
2013-1-10,56.7,45.4,39.1,41.8,36.6,32.2,86,72,52,30.19,30.08,8,0,8,0.00
2013-1-11,59.1,45.2,39.8,45.7,37.2,31.2,89,74,53,30.27,30.13,11,1,12,0.00
2013-1-12,53.9,42.9,36.8,38.3,33.6,24.0,89,71,34,30.26,30.15,8,0,8,0.00
2013-1-13,54.4,41.1,32.8,35.6,30.5,20.2,90,68,35,30.27,30.19,6,0,6,0.00
2013-1-14,56.4,44.8,36.7,35.4,25.5,18.7,73,47,31,30.41,30.23,8,1,9,0.00
2013-1-15,55.4,44.2,37.2,40.5,34.8,29.9,89,71,44,30.48,30.40,3,0,4,0.00
2013-1-16,60.6,45.4,36.5,43.4,36.4,32.4,88,72,45,30.44,30.26,5,0,5,0.00
2013-1-17,62.2,48.6,39.6,44.7,38.4,35.5,88,69,44,30.27,30.16,4,0,4,0.00
2013-1-18,64.1,51.4,43.2,43.4,38.0,31.9,80,62,40,30.24,30.14,4,0,5,0.00
2013-1-19,63.3,51.4,42.6,43.3,37.2,30.5,80,59,46,30.25,30.16,4,0,5,0.00
2013-1-20,66.0,53.0,44.2,42.2,35.8,29.8,76,53,35,30.23,30.14,4,0,6,0.00
2013-1-21,61.3,50.8,42.6,44.8,39.9,34.4,82,67,50,30.18,30.09,5,0,6,0.00
2013-1-22,58.1,51.7,45.6,44.9,42.4,38.8,80,71,57,30.12,30.01,6,1,7,0.00
2013-1-23,53.6,50.5,47.9,47.8,45.2,41.9,92,82,66,30.09,29.96,10,1,12,0.23
2013-1-24,56.9,51.5,48.0,52.8,48.9,45.8,93,91,84,30.20,30.07,3,0,3,0.00
2013-1-25,67.5,56.7,50.7,58.0,52.1,48.2,92,85,69,30.20,30.04,4,0,4,0.00
2013-1-26,62.6,53.2,45.7,50.9,44.4,37.3,91,73,43,30.08,29.99,11,1,16,0.00
2013-1-27,58.1,48.2,41.5,43.1,39.3,36.3,83,72,54,30.18,30.07,5,1,7,0.00
2013-1-28,61.9,49.8,43.4,46.3,41.5,36.7,87,74,53,30.29,30.16,7,0,8,0.00
2013-1-29,62.6,51.0,44.3,48.8,43.1,39.4,85,75,58,30.36,30.27,9,0,10,0.00
2013-1-30,65.5,54.6,46.2,49.7,45.2,42.2,88,72,50,30.35,30.26,8,1,8,0.00
2013-1-31,65.2,53.1,44.2,50.1,45.8,41.3,90,77,56,30.29,30.18,5,0,5,0.00
2013-2-1,66.0,54.4,46.1,51.2,46.2,42.7,89,75,55,30.22,30.12,6,0,6,0.00
2013-2-2,63.2,50.6,46.3,53.5,46.8,43.5,93,87,65,30.30,30.22,11,1,11,0.00
2013-2-3,60.3,50.7,45.2,50.1,45.5,41.4,91,83,63,30.26,30.15,6,1,9,0.00
2013-2-4,57.4,48.3,45.2,52.1,45.5,43.3,93,90,79,30.18,30.07,11,1,12,0.00
2013-2-5,60.4,49.9,43.7,51.0,44.6,40.6,90,82,68,30.16,30.08,13,1,13,0.00
2013-2-6,63.1,49.2,42.6,50.0,43.1,38.7,88,80,57,30.21,30.13,11,2,11,0.00
2013-2-7,55.2,48.2,42.6,47.4,43.1,39.3,91,83,60,30.18,30.00,19,5,20,0.25
2013-2-8,58.8,47.5,38.9,45.8,39.3,29.2,91,74,48,30.03,29.95,15,2,16,0.03
2013-2-9,61.1,50.3,44.2,40.6,31.3,26.0,69,49,28,30.09,30.00,11,1,12,0.00
2013-2-10,63.9,49.9,40.4,46.9,39.5,29.2,87,69,41,30.13,30.03,10,1,11,0.00
2013-2-11,68.5,53.2,46.2,45.4,38.2,28.9,90,59,25,30.23,30.07,11,2,14,0.00
2013-2-12,63.0,50.7,43.9,48.1,43.3,35.9,92,77,40,30.37,30.23,6,0,8,0.00
2013-2-13,60.1,50.1,44.6,49.7,44.1,40.7,92,81,56,30.35,30.22,14,2,14,0.00
2013-2-14,72.3,56.6,45.2,51.7,46.3,42.5,92,71,42,30.25,30.16,3,0,3,0.01
2013-2-15,72.2,59.9,51.3,48.6,44.6,41.2,77,58,38,30.27,30.20,3,0,3,0.00
2013-2-16,70.3,57.2,49.4,50.1,45.5,40.3,83,66,44,30.23,30.05,5,0,5,0.00
2013-2-17,61.3,52.0,43.2,49.2,44.5,40.8,91,77,54,30.06,29.97,11,2,12,0.00
2013-2-18,53.4,46.9,42.7,43.8,41.2,38.4,91,81,64,30.03,29.97,24,6,25,0.00
2013-2-19,49.6,44.1,39.2,43.2,38.8,33.4,90,82,62,29.98,29.76,29,4,38,0.32
2013-2-20,62.9,48.5,38.5,44.6,37.7,32.5,84,67,45,30.07,29.85,8,0,10,0.00
2013-2-21,64.1,50.8,41.7,43.1,37.9,32.9,84,64,36,30.17,30.05,11,0,11,0.00
2013-2-22,62.6,51.2,43.2,48.5,43.3,39.0,90,75,49,30.26,30.17,19,2,19,0.00
2013-2-23,64.0,52.0,44.4,46.1,39.4,29.3,91,64,37,30.26,30.17,15,1,15,0.00
2013-2-24,65.7,53.0,46.4,43.6,33.2,23.9,88,49,22,30.26,30.17,13,2,13,0.00
2013-2-25,65.0,51.6,44.1,49.8,44.4,39.8,91,77,51,30.27,30.17,8,2,9,0.00
2013-2-26,70.3,53.8,42.2,45.6,36.6,25.9,86,56,21,30.23,30.14,10,1,12,0.00
2013-2-27,69.0,54.5,45.1,49.6,42.9,34.9,86,67,32,30.37,30.21,14,1,14,0.00
2013-2-28,68.8,55.6,48.4,56.1,49.8,45.3,91,81,62,30.46,30.36,10,1,10,0.00
2013-3-1,74.0,58.8,47.5,56.1,50.1,45.0,92,75,45,30.43,30.24,6,0,6,0.00
2013-3-2,69.1,57.5,50.9,55.3,50.1,47.2,87,77,59,30.24,30.07,17,2,17,0.00
2013-3-3,63.7,52.0,45.6,52.5,47.1,42.4,91,84,61,30.10,30.04,24,8,24,0.00
2013-3-4,54.7,47.7,42.4,47.7,43.4,38.8,91,85,74,30.16,30.07,27,3,27,0.00
2013-3-5,56.2,48.3,41.9,46.2,42.7,38.6,90,81,69,30.08,29.83,37,11,37,0.12
2013-3-6,54.6,49.6,45.0,48.0,44.1,41.5,91,82,67,30.07,29.83,41,11,45,0.04
2013-3-7,55.5,47.7,43.4,47.5,43.4,41.0,91,85,69,30.00,29.87,12,0,12,0.01
2013-3-8,65.8,52.0,44.7,48.7,41.8,37.1,85,69,44,30.05,29.84,9,0,9,0.00
2013-3-9,71.0,54.8,42.6,50.5,42.7,38.4,86,66,38,30.31,30.05,10,1,10,0.00
2013-3-10,66.0,55.4,46.9,51.5,43.6,36.6,87,66,40,30.35,30.25,15,3,16,0.00
2013-3-11,71.5,55.3,46.0,51.7,44.8,40.3,90,70,40,30.26,30.11,15,2,15,0.00
2013-3-12,75.4,56.5,46.6,62.5,50.1,44.4,93,81,51,30.17,30.08,8,1,8,0.00
2013-3-13,78.7,61.2,48.5,58.7,51.7,46.0,92,73,38,30.17,30.07,5,0,5,0.00
2013-3-14,66.5,56.7,49.8,55.3,49.7,45.4,90,78,58,30.17,30.08,11,1,11,0.00
2013-3-15,70.5,56.2,48.2,54.7,48.1,43.9,89,75,54,30.14,30.04,15,1,15,0.00
2013-3-16,73.5,56.7,47.6,55.3,46.9,41.0,93,73,35,30.12,30.03,11,2,11,0.00
2013-3-17,66.3,56.0,48.2,49.0,44.5,39.8,84,66,45,30.15,30.04,14,2,14,0.00
2013-3-18,61.1,52.2,46.0,50.4,45.5,42.1,90,79,61,30.13,30.04,23,3,23,0.00
2013-3-19,60.5,52.3,46.8,50.7,45.8,41.7,88,79,62,30.14,30.06,18,3,18,0.06
2013-3-20,56.1,51.6,47.8,52.0,48.6,43.3,93,90,80,30.15,30.07,22,5,24,0.12
2013-3-21,65.7,52.2,42.4,49.1,44.0,39.6,93,75,49,30.14,30.02,12,1,12,0.01
2013-3-22,72.9,56.1,44.9,45.3,37.6,28.3,82,54,21,30.13,30.03,10,0,10,0.00
2013-3-23,67.8,55.0,46.1,43.6,37.2,27.2,82,54,24,30.15,30.05,14,2,14,0.00
2013-3-24,64.1,53.2,46.5,49.9,45.4,41.6,88,76,53,30.10,29.98,13,2,15,0.00
2013-3-25,56.9,49.0,43.7,47.9,43.7,40.6,90,82,71,30.03,29.94,19,5,19,0.00
2013-3-26,59.6,50.9,44.0,50.3,45.0,40.4,88,80,70,30.02,29.95,17,4,17,0.00
2013-3-27,57.2,52.1,48.3,52.1,48.7,43.7,93,88,82,30.03,29.96,14,4,14,0.00
2013-3-28,63.9,55.3,52.1,56.7,51.7,49.0,93,88,74,30.10,30.01,14,4,16,0.00
2013-3-29,77.8,57.9,49.8,60.1,51.2,47.0,90,80,49,30.09,30.02,17,2,18,0.01
2013-3-30,65.6,54.7,50.9,55.9,50.4,48.0,91,86,70,30.08,29.98,24,8,26,0.07
2013-3-31,62.9,55.7,52.3,56.2,51.5,49.2,89,86,75,30.08,30.00,21,6,22,0.06
2013-4-1,63.1,55.8,50.7,54.3,50.0,46.3,86,81,68,30.16,30.05,16,4,16,0.45
2013-4-2,65.3,54.4,48.5,56.0,49.2,44.4,86,83,70,30.20,30.09,12,2,15,0.00
2013-4-3,72.1,53.8,48.1,58.5,47.7,43.7,86,81,48,30.15,30.00,21,4,21,0.00
2013-4-4,57.7,53.6,49.0,51.8,47.7,44.1,83,80,77,30.13,29.99,25,7,25,0.56
2013-4-5,60.7,55.0,52.1,54.1,48.7,44.9,83,79,75,30.20,30.12,19,6,19,0.00
2013-4-6,59.7,54.0,51.3,54.4,46.7,43.7,83,76,72,30.21,30.14,19,7,20,0.01
2013-4-7,61.3,54.2,49.2,54.3,46.3,40.1,83,75,66,30.19,29.83,31,8,33,0.01
2013-4-8,71.5,55.3,43.8,47.0,40.3,35.7,84,59,36,30.03,29.80,7,2,21,0.01
2013-4-9,79.0,64.5,54.1,47.4,40.9,35.3,54,43,29,30.10,30.03,9,1,9,0.00
2013-4-10,86.4,69.7,60.3,59.7,49.9,40.0,72,51,34,30.18,30.03,15,1,16,0.00
2013-4-11,73.7,59.5,49.5,54.6,48.4,44.0,83,68,47,30.05,29.84,10,1,11,0.00
2013-4-12,70.3,56.5,47.4,52.6,47.8,43.7,87,74,45,29.93,29.83,18,3,18,0.00
2013-4-13,72.5,56.7,47.4,55.7,46.6,39.6,87,71,45,29.91,29.83,9,1,11,0.00
2013-4-14,71.8,55.3,45.6,47.6,42.2,36.9,89,63,37,29.94,29.86,16,2,18,0.00
2013-4-15,65.6,50.8,43.9,44.4,40.0,33.6,90,69,39,29.96,29.86,16,2,17,0.00
2013-4-16,71.5,55.7,44.0,40.4,35.6,32.2,73,49,28,30.17,29.96,5,1,7,0.00
2013-4-17,75.5,61.4,52.3,40.7,35.7,32.2,52,39,23,30.28,30.17,8,1,8,0.00
2013-4-18,78.0,62.5,53.1,44.3,39.0,31.8,61,43,24,30.27,30.19,16,2,17,0.00
2013-4-19,73.8,61.2,49.3,55.1,48.0,43.2,83,63,40,30.23,30.07,15,2,15,0.00
2013-4-20,79.3,63.3,49.1,51.4,46.6,41.6,86,57,27,30.11,29.98,16,2,16,0.00
2013-4-21,82.6,65.5,49.4,57.3,47.1,41.0,85,55,28,30.05,29.93,14,2,15,0.00
2013-4-22,90.3,69.6,60.1,53.9,48.6,40.8,68,49,19,29.97,29.85,15,2,16,0.00
2013-4-23,81.8,61.4,46.4,51.2,41.6,29.0,91,54,15,29.94,29.85,18,4,21,0.00
2013-4-24,57.5,51.0,45.9,49.7,46.6,43.7,92,85,74,29.96,29.84,27,10,28,0.00
2013-4-25,58.9,53.6,48.6,50.7,48.2,44.6,87,82,73,30.14,29.96,21,8,22,0.00
2013-4-26,62.6,52.5,46.8,52.5,47.3,43.4,89,83,69,30.24,30.13,16,3,16,0.00
2013-4-27,65.8,53.8,46.6,55.2,48.1,43.5,89,82,66,30.24,30.08,12,3,12,0.00
2013-4-28,77.3,61.2,47.3,59.1,51.4,44.2,89,72,49,30.08,29.88,11,3,11,0.00
2013-4-29,81.8,69.7,58.7,58.4,53.2,48.9,73,57,34,29.91,29.76,12,2,13,0.00
2013-4-30,79.5,64.7,52.4,53.1,47.5,27.4,85,57,22,29.86,29.78,15,2,16,0.00
2013-5-1,86.2,69.8,59.7,53.2,38.0,24.1,61,33,14,30.07,29.84,11,2,11,0.00
2013-5-2,92.9,73.8,59.6,47.3,37.6,23.7,58,29,12,30.15,30.07,12,1,13,0.00
2013-5-3,82.8,70.4,60.4,52.1,41.3,25.7,62,36,19,30.08,29.79,17,2,17,0.00
2013-5-4,73.7,61.4,52.7,53.5,47.1,33.2,88,63,31,29.79,29.57,34,9,36,0.00
2013-5-5,63.4,57.5,52.5,53.4,49.9,47.8,85,76,67,29.82,29.61,22,7,22,0.00
2013-5-6,68.5,59.7,54.1,54.9,51.7,49.5,87,75,56,29.97,29.82,20,5,21,0.00
2013-5-7,67.2,58.9,52.6,56.5,52.8,49.8,91,80,66,30.05,29.96,18,6,19,0.00
2013-5-8,59.4,53.7,50.0,52.3,49.5,46.3,92,86,76,30.14,30.04,21,6,24,0.00
2013-5-9,63.6,54.7,49.4,53.8,49.3,46.3,89,82,70,30.18,30.10,18,5,19,0.00
2013-5-10,66.8,55.6,49.5,56.6,50.6,46.4,90,83,69,30.19,30.11,16,3,17,0.00
2013-5-11,72.6,57.5,49.5,60.5,51.4,46.7,90,81,59,30.15,30.06,20,4,21,0.00
2013-5-12,74.7,60.9,51.2,61.7,53.3,47.8,89,77,59,30.15,30.03,11,2,11,0.00
2013-5-13,77.7,60.0,50.0,62.0,52.8,46.6,88,78,57,30.09,29.95,12,2,12,0.00
2013-5-14,70.8,58.6,51.2,55.8,50.9,46.7,87,76,58,29.99,29.92,15,3,16,0.00
2013-5-15,72.9,59.0,49.2,54.9,49.7,45.3,87,73,48,30.05,29.98,6,1,9,0.00
2013-5-16,65.7,58.2,53.2,57.3,51.7,46.5,85,79,67,30.03,29.97,20,3,22,0.00
2013-5-17,65.0,55.9,49.4,53.9,48.2,45.1,86,76,61,30.08,29.97,19,4,20,0.00
2013-5-18,78.0,60.7,49.6,57.4,49.7,44.9,87,69,43,30.14,30.07,11,1,12,0.00
2013-5-19,77.2,65.5,52.9,55.1,49.1,42.3,84,58,34,30.12,29.98,17,2,17,0.00
2013-5-20,86.3,67.0,53.1,57.1,49.4,41.7,81,56,21,30.01,29.92,15,2,16,0.00
2013-5-21,74.9,59.7,50.0,54.0,47.0,39.0,86,65,38,29.99,29.90,14,1,15,0.00
2013-5-22,70.5,56.7,46.6,43.4,37.6,30.7,72,51,29,30.02,29.90,6,1,8,0.00
2013-5-23,66.3,55.8,46.8,47.0,43.1,39.0,76,63,44,30.01,29.92,18,2,18,0.00
2013-5-24,66.7,56.4,48.4,49.3,45.8,43.3,86,69,48,30.01,29.94,18,2,19,0.00
2013-5-25,73.5,56.5,47.7,53.8,47.5,43.4,88,73,46,30.05,29.96,13,2,14,0.00
2013-5-26,63.1,56.5,51.1,54.5,51.0,47.8,91,82,72,30.13,30.04,24,5,24,0.00
2013-5-27,62.4,55.4,51.6,55.0,51.3,47.1,92,86,76,30.13,30.00,17,5,17,0.02
2013-5-28,71.7,60.0,53.8,60.3,54.4,49.9,92,83,64,30.01,29.92,11,2,13,0.01
2013-5-29,73.2,61.1,54.9,57.6,52.4,45.9,85,74,52,29.98,29.90,16,3,17,0.00
2013-5-30,78.5,60.9,50.4,53.8,49.3,46.4,87,68,37,29.99,29.93,11,1,11,0.00
2013-5-31,83.0,64.7,52.3,55.4,50.4,46.9,84,63,34,30.02,29.91,11,2,13,0.00
2013-6-1,83.0,67.6,54.5,59.2,51.7,47.8,79,59,33,29.93,29.77,11,2,11,0.00
2013-6-2,73.0,57.7,51.6,56.3,50.2,47.7,89,77,52,29.78,29.67,18,6,20,0.00
2013-6-3,60.4,54.7,50.9,53.0,50.1,48.1,90,84,75,29.87,29.72,29,14,29,0.00
2013-6-4,59.1,54.4,52.3,53.1,50.1,48.7,88,86,79,29.97,29.86,27,12,28,0.00
2013-6-5,59.7,53.6,50.3,52.7,48.7,44.7,86,83,77,30.01,29.94,27,11,27,0.00
2013-6-6,60.9,53.2,49.1,54.3,47.0,43.2,83,79,75,29.97,29.87,22,10,22,0.00
2013-6-7,80.0,61.7,50.7,62.7,51.3,43.3,80,70,51,29.90,29.73,18,4,18,0.00
2013-6-8,67.0,58.5,54.0,57.2,50.9,44.4,81,76,69,29.81,29.72,34,12,37,0.00
2013-6-9,59.1,55.2,53.9,52.6,46.0,41.7,79,71,62,29.90,29.81,27,14,30,0.00
2013-6-10,62.6,56.1,53.1,54.8,45.7,39.2,79,69,58,29.96,29.81,29,8,29,0.01
2013-6-11,67.9,59.4,53.1,57.6,49.9,41.2,78,71,61,30.00,29.90,17,4,17,0.00
2013-6-12,88.7,62.5,50.9,56.6,47.5,37.9,78,60,28,29.99,29.91,10,2,13,0.03
2013-6-13,82.0,64.3,53.0,53.2,48.8,42.2,84,60,27,30.09,29.99,10,1,11,0.00
2013-6-14,78.0,64.7,52.9,53.4,49.6,43.5,91,62,32,30.00,29.83,20,4,20,0.00
2013-6-15,61.9,54.7,50.4,54.2,51.5,49.7,98,89,74,30.00,29.83,25,8,25,0.00
2013-6-16,83.3,62.3,51.6,57.6,52.8,50.6,97,74,39,30.09,29.99,10,2,10,0.00
2013-6-17,78.4,62.5,54.3,58.8,54.3,49.3,94,76,48,30.08,30.02,12,2,13,0.00
2013-6-18,68.8,60.3,53.2,55.6,52.3,46.7,96,76,55,30.03,29.97,20,3,20,0.00
2013-6-19,73.5,63.1,53.7,52.8,48.7,44.0,81,61,43,30.06,29.99,14,2,14,0.00
2013-6-20,81.5,64.4,54.7,53.4,49.2,45.0,86,60,29,30.01,29.94,15,1,15,0.00
2013-6-21,78.3,62.4,52.7,54.4,51.7,44.8,95,71,33,29.98,29.91,12,2,12,0.00
2013-6-22,83.9,65.5,52.6,55.1,52.0,48.4,94,65,33,29.94,29.84,16,2,17,0.00
2013-6-23,62.7,58.3,56.4,59.8,57.1,53.5,100,96,72,29.87,29.82,20,6,20,0.00
2013-6-24,58.9,56.8,54.8,58.8,56.8,54.8,100,100,99,29.91,29.79,19,6,19,0.06
2013-6-25,64.3,61.4,58.4,64.3,61.4,58.3,100,100,99,29.99,29.89,25,7,25,0.47
2013-6-26,75.3,66.8,60.6,68.2,63.3,60.6,100,89,68,30.06,29.97,14,4,16,0.01
2013-6-27,89.0,71.3,57.5,67.5,61.4,56.8,100,74,42,30.08,30.01,8,1,8,0.00
2013-6-28,85.8,73.6,62.5,64.2,59.5,51.7,89,64,41,30.02,29.89,13,2,14,0.00
2013-6-29,85.8,73.2,60.2,62.4,57.5,51.4,88,60,37,29.91,29.79,10,2,10,0.00
2013-6-30,79.4,66.3,56.9,62.5,58.5,56.1,97,78,55,29.84,29.75,9,2,9,0.00
2013-7-1,80.0,66.2,56.1,61.9,58.1,55.7,99,78,48,29.85,29.79,16,4,18,0.00
2013-7-2,74.0,63.0,57.8,61.9,58.2,56.4,98,85,62,29.92,29.82,30,10,32,0.00
2013-7-3,79.8,65.9,57.5,64.6,59.4,57.2,100,82,51,29.92,29.76,25,6,25,0.00
2013-7-4,78.0,68.6,61.3,61.8,58.6,51.2,93,72,41,29.78,29.68,17,4,18,0.00
2013-7-5,66.0,59.8,54.7,56.5,54.0,51.1,93,82,66,29.76,29.70,24,7,25,0.00
2013-7-6,61.4,56.1,53.6,55.9,53.8,52.5,98,92,81,29.82,29.75,26,13,28,0.00
2013-7-7,63.9,57.7,54.4,57.3,55.0,53.3,98,91,78,29.87,29.79,22,11,29,0.00
2013-7-8,64.8,58.1,54.4,58.4,55.5,53.6,99,91,79,29.98,29.87,20,9,20,0.00
2013-7-9,78.3,63.2,53.5,61.9,56.5,53.1,100,82,49,30.04,29.93,16,3,16,0.00
2013-7-10,66.4,57.0,53.4,58.0,54.9,52.8,99,93,73,29.98,29.90,30,10,31,0.00
2013-7-11,61.5,55.2,52.2,56.8,53.9,51.9,100,96,82,29.95,29.88,26,11,28,0.00
2013-7-12,62.2,56.6,53.4,56.8,54.4,52.7,98,92,80,29.95,29.88,23,8,23,0.00
2013-7-13,68.7,58.8,53.4,57.4,54.6,52.7,98,87,62,29.97,29.90,18,7,19,0.00
2013-7-14,63.2,56.4,53.3,56.9,54.4,52.7,99,93,79,30.00,29.91,22,10,23,0.00
2013-7-15,61.6,55.2,51.2,56.4,53.9,51.2,100,96,81,29.93,29.85,27,10,27,0.00
2013-7-16,60.1,57.2,53.8,58.7,55.8,52.9,99,95,89,30.04,29.87,17,6,17,0.00
2013-7-17,67.8,60.1,54.8,59.8,56.8,54.4,99,89,74,30.10,30.03,19,4,21,0.00
2013-7-18,66.5,58.3,54.1,59.0,55.8,53.7,100,92,75,30.06,29.95,16,6,18,0.00
2013-7-19,67.0,58.3,54.1,59.7,55.8,53.5,100,92,73,29.96,29.83,18,8,18,0.00
2013-7-20,65.4,56.4,53.1,58.1,54.6,52.8,100,94,76,29.86,29.75,25,10,26,0.00
2013-7-21,63.7,56.4,53.2,57.5,54.7,52.9,100,94,79,29.89,29.78,30,11,31,0.00
2013-7-22,66.3,59.5,54.4,61.0,57.8,54.1,100,94,81,29.97,29.88,25,10,25,0.00
2013-7-23,67.2,61.7,56.9,61.2,58.4,56.3,98,89,80,30.02,29.94,22,8,23,0.00
2013-7-24,71.8,62.3,55.8,61.2,58.1,55.4,100,87,65,30.00,29.91,15,5,17,0.00
2013-7-25,65.5,57.5,53.7,58.1,55.4,53.7,100,93,76,30.03,29.93,19,9,22,0.00
2013-7-26,65.3,57.3,53.6,59.5,56.0,53.6,100,96,82,30.11,30.01,23,11,25,0.00
2013-7-27,63.4,56.6,53.7,58.9,55.8,53.7,100,97,83,30.04,29.88,26,11,27,0.00
2013-7-28,60.7,55.9,53.9,57.3,54.9,53.3,100,96,86,29.89,29.82,33,13,33,0.00
2013-7-29,60.5,56.7,54.5,57.1,55.3,54.0,98,95,88,30.02,29.85,24,12,26,0.00
2013-7-30,62.7,56.7,53.3,58.1,55.3,53.3,100,95,84,30.11,30.02,26,10,28,0.00
2013-7-31,69.2,58.8,52.9,59.0,55.7,52.9,100,90,69,30.10,30.01,21,7,23,0.00
2013-8-1,70.8,60.7,53.3,58.4,56.0,52.5,98,85,63,30.06,29.96,20,4,21,0.00
2013-8-2,69.4,59.0,53.2,58.2,55.2,52.9,100,88,64,29.98,29.90,19,6,19,0.00
2013-8-3,63.9,56.2,52.9,57.8,54.6,52.6,100,95,81,29.98,29.92,22,10,23,0.00
2013-8-4,61.3,55.7,52.9,56.1,54.4,52.8,100,96,83,30.02,29.96,25,10,25,0.00
2013-8-5,61.8,55.9,52.9,56.6,54.5,52.5,100,95,82,30.04,29.94,25,9,27,0.00
2013-8-6,62.8,57.3,53.4,57.8,55.6,53.1,100,94,81,30.05,29.98,25,9,27,0.00
2013-8-7,63.4,59.1,56.1,59.3,57.8,55.8,100,96,86,30.11,30.04,16,6,17,0.00
2013-8-8,67.5,60.3,54.9,60.5,57.6,54.1,100,91,70,30.05,29.94,20,5,21,0.01
2013-8-9,65.5,58.7,54.4,59.2,56.4,54.1,99,93,79,30.00,29.92,23,8,25,0.00
2013-8-10,66.5,60.5,56.9,60.4,58.0,56.1,99,92,78,30.06,30.00,21,6,22,0.00
2013-8-11,66.8,59.0,55.1,60.1,57.0,54.9,100,94,78,30.03,29.94,17,6,17,0.00
2013-8-12,67.2,58.7,54.6,59.8,56.6,54.6,100,93,75,30.01,29.95,17,6,17,0.00
2013-8-13,79.3,64.9,55.7,61.8,57.5,55.1,99,79,49,30.00,29.91,17,4,18,0.00
2013-8-14,80.2,64.6,55.2,62.8,58.5,54.7,99,82,53,29.98,29.90,12,3,13,0.00
2013-8-15,78.5,66.7,59.8,67.3,63.1,59.5,100,89,68,29.97,29.91,14,2,14,0.00
2013-8-16,80.8,66.9,59.0,63.8,60.5,57.2,100,82,53,29.99,29.93,14,3,15,0.00
2013-8-17,85.0,64.5,57.6,64.0,59.2,56.8,98,85,49,29.99,29.86,12,3,14,0.00
2013-8-18,84.3,68.5,56.8,63.8,59.9,56.5,100,77,47,29.89,29.78,14,4,15,0.00
2013-8-19,72.5,64.4,58.4,61.0,59.2,57.0,99,84,66,29.90,29.78,27,8,28,0.00
2013-8-20,65.8,60.1,57.9,60.8,58.9,56.9,100,96,83,29.90,29.83,28,13,31,0.00
2013-8-21,67.7,60.7,57.7,59.1,57.4,56.3,98,89,73,29.95,29.87,25,9,25,0.00
2013-8-22,67.5,60.6,56.7,58.5,56.7,55.3,96,87,72,29.98,29.89,22,8,22,0.00
2013-8-23,73.2,61.9,56.0,61.3,57.7,55.2,98,87,66,29.93,29.80,17,4,17,0.00
2013-8-24,73.5,63.1,55.9,62.2,59.0,55.1,98,87,66,29.89,29.82,17,3,17,0.00
2013-8-25,70.5,64.6,60.3,65.2,62.2,59.7,99,92,83,29.94,29.88,22,6,23,0.00
2013-8-26,80.2,65.7,59.9,63.3,59.3,55.1,98,82,46,30.01,29.89,10,2,11,0.00
2013-8-27,78.8,64.5,57.3,63.4,59.3,56.7,99,85,58,29.90,29.82,13,2,14,0.00
2013-8-28,75.7,65.3,57.7,66.6,61.8,57.4,99,89,72,29.94,29.84,15,3,15,0.00
2013-8-29,78.8,67.3,60.8,66.5,63.2,60.5,100,88,66,30.05,29.94,12,3,13,0.00
2013-8-30,89.5,69.6,60.1,66.6,61.7,57.6,100,79,44,30.04,29.91,10,2,10,0.00
2013-8-31,78.2,65.5,57.8,62.9,60.0,57.5,99,84,58,29.97,29.88,13,2,13,0.00
2013-9-1,74.0,65.1,57.2,64.0,60.1,56.3,98,85,65,29.94,29.88,14,3,15,0.00
2013-9-2,74.4,67.0,62.2,66.7,63.1,60.1,98,88,74,29.95,29.88,21,4,21,0.00
2013-9-3,75.0,65.7,59.2,63.8,60.2,55.3,95,83,64,30.00,29.92,20,3,20,0.00
2013-9-4,82.3,66.7,59.1,63.2,60.4,57.7,97,82,47,30.03,29.93,13,2,13,0.00
2013-9-5,83.3,68.4,59.0,62.0,58.6,55.3,98,74,41,30.00,29.93,10,1,11,0.00
2013-9-6,96.1,74.7,59.8,61.0,54.3,38.5,96,56,15,29.98,29.82,8,0,8,0.00
2013-9-7,89.0,74.2,60.2,61.1,54.7,47.5,87,53,31,29.86,29.79,16,3,17,0.00
2013-9-8,80.1,65.3,57.0,62.7,58.2,55.5,100,80,48,29.87,29.75,14,3,15,0.00
2013-9-9,79.3,63.9,56.1,61.0,57.8,54.3,98,82,51,29.81,29.70,16,4,17,0.00
2013-9-10,63.6,60.9,58.7,61.4,60.1,58.3,100,97,92,29.90,29.73,28,13,29,0.00
2013-9-11,67.8,63.4,61.1,61.7,60.5,59.7,99,91,80,30.00,29.90,20,7,21,0.00
2013-9-12,73.3,64.0,59.5,64.3,61.6,58.7,100,92,73,29.98,29.88,15,2,15,0.00
2013-9-13,79.6,63.0,57.3,63.9,58.8,55.9,99,87,56,29.90,29.75,14,2,15,0.00
2013-9-14,79.3,62.9,56.5,63.3,58.2,55.5,98,86,57,29.82,29.73,8,1,8,0.00
2013-9-15,73.9,63.1,55.4,62.4,58.7,54.8,98,87,63,29.86,29.76,19,3,19,0.00
2013-9-16,81.0,65.3,58.5,62.9,60.0,57.2,100,85,52,29.89,29.78,11,2,13,0.00
2013-9-17,81.0,67.4,57.7,59.6,56.1,52.8,95,70,40,29.88,29.80,12,1,12,0.00
2013-9-18,80.8,67.0,57.3,59.4,53.2,47.1,93,65,35,29.91,29.81,17,2,17,0.00
2013-9-19,82.6,68.3,55.9,59.1,52.3,42.8,93,60,27,29.85,29.74,13,2,14,0.00
2013-9-20,70.5,61.0,54.7,63.2,58.4,51.3,97,91,73,29.85,29.76,18,5,19,0.00
2013-9-21,66.5,61.7,58.4,62.6,59.8,55.2,100,94,78,29.89,29.79,20,7,20,0.39
2013-9-22,74.5,62.9,55.9,59.6,55.9,53.3,96,79,53,30.00,29.89,15,1,15,0.00
2013-9-23,81.2,67.4,58.4,64.4,58.6,53.3,93,75,54,30.02,29.93,13,1,14,0.00
2013-9-24,79.9,66.3,59.0,59.9,54.8,47.6,94,69,42,29.99,29.89,18,1,20,0.00
2013-9-25,76.4,63.1,57.0,50.8,48.2,45.0,76,60,37,29.92,29.81,13,1,14,0.00
2013-9-26,76.3,64.3,54.7,49.7,42.5,38.3,65,46,29,29.98,29.83,13,1,13,0.00
2013-9-27,81.0,67.4,57.6,52.5,39.7,33.5,83,38,22,30.09,29.98,14,1,16,0.00
2013-9-28,77.7,65.4,57.3,57.4,50.4,37.6,93,63,25,30.08,30.00,14,3,15,0.00
2013-9-29,70.6,62.9,57.2,63.7,60.1,56.1,99,91,77,30.10,30.05,15,4,16,0.00
2013-9-30,66.8,62.4,59.2,65.4,61.3,51.1,100,97,75,30.07,29.97,14,5,14,0.01
2013-10-1,73.0,62.4,54.6,56.1,51.7,47.8,86,69,50,30.01,29.92,10,2,11,0.00
2013-10-2,77.5,63.6,56.4,58.3,51.4,41.6,89,67,36,30.01,29.92,13,1,13,0.00
2013-10-3,80.7,65.3,54.3,46.8,40.2,33.9,61,42,20,30.07,29.95,11,1,11,0.00
2013-10-4,86.3,71.8,63.1,43.3,34.6,25.5,44,27,12,30.08,29.93,12,1,15,0.00
2013-10-5,85.3,72.3,62.8,43.7,33.0,28.3,34,24,14,30.18,30.08,3,0,3,0.00
2013-10-6,84.3,69.3,58.5,42.8,35.9,29.0,47,30,16,30.11,29.99,12,1,12,0.00
2013-10-7,77.6,68.1,55.7,52.8,41.6,32.8,89,40,24,29.99,29.86,12,2,14,0.00
2013-10-8,70.1,59.5,53.0,56.0,51.0,45.3,93,76,45,29.90,29.70,17,3,17,0.00
2013-10-9,69.3,59.5,49.8,52.1,47.1,41.0,94,67,40,29.76,29.63,15,2,17,0.00
2013-10-10,63.2,56.1,51.0,53.3,50.1,38.3,97,82,41,30.00,29.76,26,8,26,0.00
2013-10-11,61.7,54.3,49.7,52.5,50.8,48.9,98,89,71,30.10,29.98,15,4,16,0.00
2013-10-12,65.5,55.4,49.7,53.9,50.8,48.0,99,86,61,30.01,29.90,17,3,21,0.00
2013-10-13,73.7,60.7,52.6,56.4,48.6,39.5,96,67,33,30.06,29.92,16,2,16,0.00
2013-10-14,81.7,66.2,54.4,52.9,44.5,35.9,88,50,22,30.12,30.00,6,0,6,0.00
2013-10-15,84.6,68.2,53.7,47.5,39.7,31.5,73,39,17,30.04,29.95,6,0,6,0.00
2013-10-16,82.5,67.6,57.5,50.7,39.7,33.6,69,38,19,30.08,29.98,11,2,11,0.00
2013-10-17,84.1,67.5,57.1,50.5,39.6,32.7,65,38,20,30.07,29.96,12,2,12,0.00
2013-10-18,75.9,62.5,52.1,54.3,49.2,42.1,92,64,36,30.05,29.97,6,1,6,0.00
2013-10-19,86.5,64.4,53.1,53.7,49.3,40.5,92,63,23,30.07,29.99,7,0,9,0.00
2013-10-20,70.4,57.9,50.0,55.7,51.1,47.8,98,80,53,30.01,29.91,9,2,9,0.00
2013-10-21,66.3,54.1,49.4,54.5,50.6,48.5,99,89,63,30.01,29.92,8,2,9,0.00
2013-10-22,69.6,54.9,48.7,58.0,51.6,48.2,99,90,59,30.02,29.92,7,1,7,0.00
2013-10-23,64.1,52.7,48.3,55.3,50.7,48.0,99,93,70,29.98,29.90,14,2,15,0.01
2013-10-24,62.2,52.7,48.4,53.5,50.2,47.7,99,92,72,30.11,29.98,15,4,15,0.00
2013-10-25,71.5,58.2,48.9,56.6,52.2,47.8,98,82,57,30.17,30.08,6,0,7,0.00
2013-10-26,81.3,61.8,51.9,56.5,51.3,47.4,96,72,36,30.14,30.01,6,1,7,0.00
2013-10-27,58.7,52.8,49.0,52.7,50.2,47.7,99,91,75,30.02,29.66,31,9,31,0.00
2013-10-28,62.4,55.2,49.8,52.1,49.1,45.1,94,80,62,29.84,29.67,15,3,16,0.00
2013-10-29,60.7,54.7,50.7,52.1,50.0,47.3,96,85,68,30.05,29.84,14,4,14,0.00
2013-10-30,67.3,56.1,50.2,56.0,49.6,41.3,98,80,55,30.16,30.05,12,1,12,0.00
2013-10-31,72.3,60.0,51.1,55.2,48.3,40.7,93,68,41,30.18,30.07,11,1,11,0.00
2013-11-1,74.7,62.6,51.9,53.8,48.7,45.2,89,63,38,30.14,30.00,4,0,4,0.00
2013-11-2,71.6,60.0,51.9,55.7,50.8,45.1,93,72,55,30.02,29.90,8,1,9,0.00
2013-11-3,65.8,56.5,50.0,46.9,39.8,34.4,73,55,34,30.05,29.92,8,1,9,0.00
2013-11-4,75.3,60.5,48.8,40.5,35.5,30.3,69,42,22,30.07,29.92,6,0,7,0.00
2013-11-5,76.8,63.3,53.9,44.4,36.8,32.7,64,38,22,30.21,30.05,10,1,11,0.00
2013-11-6,71.0,61.7,53.3,48.3,43.2,37.6,68,51,38,30.25,30.15,5,0,5,0.00
2013-11-7,72.8,63.0,54.2,53.6,44.4,38.8,93,53,32,30.16,30.07,14,2,14,0.00
2013-11-8,76.8,59.3,50.4,58.2,51.4,44.8,99,78,41,30.08,29.95,12,1,12,0.00
2013-11-9,70.7,53.1,49.0,52.5,49.0,47.5,96,87,48,30.02,29.97,4,1,4,0.00
2013-11-10,61.8,55.0,51.1,53.9,51.9,49.7,98,90,73,30.12,30.03,15,6,16,0.01
2013-11-11,67.0,56.8,49.6,56.4,51.1,46.4,98,83,61,30.17,30.07,9,1,10,0.00
2013-11-12,75.2,62.3,56.2,55.2,51.7,47.5,86,69,44,30.27,30.16,9,0,9,0.00
2013-11-13,72.2,61.0,53.1,59.2,54.6,51.8,97,81,54,30.24,30.09,11,1,11,0.00
2013-11-14,61.6,55.5,51.6,57.3,50.7,35.6,99,86,40,30.10,29.87,11,2,11,0.00
2013-11-15,63.9,56.0,49.4,50.0,45.4,37.5,95,69,41,29.88,29.72,15,2,16,0.00
2013-11-16,68.8,54.8,46.6,53.2,49.0,44.9,97,82,54,29.92,29.76,11,1,12,0.00
2013-11-17,59.9,52.7,47.9,52.9,49.2,45.6,99,88,71,30.09,29.92,12,2,13,0.00
2013-11-18,56.8,52.5,48.4,51.8,49.8,46.5,97,91,81,30.16,30.08,13,4,13,0.00
2013-11-19,57.9,55.3,52.6,57.6,54.2,50.3,99,96,88,30.11,29.93,20,5,24,0.61
2013-11-20,58.7,56.0,50.0,58.7,55.9,50.0,100,100,99,29.94,29.84,13,4,18,0.54
2013-11-21,65.5,55.8,50.0,53.8,43.4,28.0,100,69,33,29.98,29.89,13,1,13,0.01
2013-11-22,72.8,61.8,54.8,35.0,27.9,18.7,41,28,15,30.01,29.89,14,1,18,0.00
2013-11-23,70.0,57.0,49.4,52.1,37.8,27.9,97,53,26,30.10,29.95,14,2,14,0.00
2013-11-24,64.5,53.7,45.7,51.5,46.0,40.0,98,77,47,30.25,30.09,6,1,7,0.00
2013-11-25,63.7,53.0,45.7,51.0,46.6,44.1,95,80,58,30.33,30.25,4,0,5,0.00
2013-11-26,64.1,53.7,48.2,48.6,45.9,44.1,88,76,54,30.27,30.04,4,0,4,0.00
2013-11-27,66.3,55.6,50.0,51.6,47.3,45.0,85,74,54,30.04,29.85,5,0,6,0.00
2013-11-28,70.2,59.0,50.9,48.6,44.6,40.2,78,60,38,30.07,29.87,6,0,6,0.00
2013-11-29,74.7,58.4,49.8,51.0,47.4,41.9,92,68,40,30.21,30.07,6,0,6,0.00
2013-11-30,73.8,57.5,50.8,52.8,48.6,43.8,93,74,38,30.27,30.19,4,0,4,0.00
2013-12-1,73.0,58.9,50.2,53.4,48.2,44.3,93,70,39,30.34,30.22,4,1,4,0.00
2013-12-2,64.2,55.9,49.0,55.4,51.3,46.3,96,85,68,30.23,29.95,8,1,8,0.00
2013-12-3,59.4,51.6,45.8,54.5,38.5,27.8,95,62,46,29.95,29.84,13,1,17,0.00
2013-12-4,57.2,45.8,38.3,36.0,27.8,22.8,74,50,30,30.09,29.94,7,0,7,0.00
2013-12-5,56.5,42.9,36.2,34.2,29.0,16.1,86,60,22,30.17,30.08,6,1,6,0.00
2013-12-6,50.7,44.6,37.1,49.8,39.5,30.4,98,83,57,30.20,29.91,37,6,37,0.29
2013-12-7,53.5,43.3,36.6,47.0,34.0,27.4,98,72,41,30.25,29.93,9,0,9,0.00
2013-12-8,49.9,39.6,33.7,34.7,29.3,24.2,92,68,40,30.33,30.23,4,0,5,0.00
2013-12-9,54.9,42.0,34.3,34.7,27.4,20.5,82,59,28,30.42,30.32,4,0,5,0.00
2013-12-10,55.9,45.1,37.4,39.2,32.9,28.6,87,63,40,30.40,30.21,6,0,6,0.00
2013-12-11,58.7,47.2,38.8,40.2,36.0,32.4,88,66,39,30.25,30.17,4,0,5,0.00
2013-12-12,58.6,49.1,42.9,41.7,37.2,32.3,80,65,37,30.27,30.17,6,0,6,0.00
2013-12-13,64.1,50.2,41.4,46.9,40.5,31.8,98,73,31,30.34,30.23,2,0,2,0.00
2013-12-14,63.4,51.5,42.7,45.9,41.4,37.4,91,70,46,30.40,30.31,4,0,4,0.00
2013-12-15,61.8,51.2,44.4,45.2,41.1,38.8,84,69,48,30.36,30.24,5,0,6,0.00
2013-12-16,66.7,54.9,47.4,45.7,41.1,38.2,84,61,38,30.24,30.12,8,0,8,0.00
2013-12-17,62.6,54.9,49.6,45.6,42.0,38.4,78,62,49,30.17,30.02,6,0,7,0.00
2013-12-18,59.6,52.2,48.7,49.7,44.7,39.7,92,76,60,30.03,29.76,20,2,20,0.00
2013-12-19,67.2,53.3,45.9,43.5,36.1,18.2,83,55,29,29.94,29.72,9,0,10,0.00
2013-12-20,66.2,52.9,45.9,44.4,30.4,14.8,76,43,27,30.02,29.93,7,1,7,0.00
2013-12-21,66.7,54.8,47.4,53.4,48.5,41.7,97,80,61,30.08,29.96,6,0,6,0.00
2013-12-22,62.7,55.1,47.6,48.8,42.9,39.3,93,65,46,30.28,30.08,5,0,5,0.00
2013-12-23,64.7,53.9,46.3,45.5,42.0,39.8,83,65,46,30.39,30.28,4,0,4,0.00
2013-12-24,71.8,57.6,47.6,48.7,43.5,39.7,88,61,39,30.34,30.20,5,0,5,0.00
2013-12-25,65.5,55.0,46.5,47.7,43.9,41.5,91,67,49,30.29,30.19,5,0,5,0.00
2013-12-26,63.7,55.2,47.3,45.9,41.0,35.8,83,61,42,30.25,30.17,8,0,8,0.00
2013-12-27,58.4,53.0,48.1,43.8,40.9,37.2,77,64,51,30.23,30.12,6,1,7,0.00
2013-12-28,68.7,55.2,43.5,42.4,36.8,29.0,87,53,29,30.15,30.03,5,0,5,0.00
2013-12-29,67.1,56.9,49.1,37.9,31.8,25.4,61,39,25,30.17,30.08,5,0,5,0.00
2013-12-30,64.8,52.4,47.1,48.1,41.6,37.5,93,68,42,30.25,30.16,6,0,7,0.00
2013-12-31,65.0,52.2,44.6,46.4,40.5,35.0,93,67,35,30.27,30.16,4,0,4,0.00
2014-1-1,64.1,54.1,45.2,44.1,38.7,32.0,87,59,34,30.22,30.13,4,1,5,0.00
2014-1-2,67.3,56.3,48.0,43.0,39.0,36.7,68,53,35,30.17,30.05,4,0,5,0.00